User: anonymous   Login
Location: Unspecified
(0.0000°N, 0.0000°E)
Time: 20:15:06
(UTC+02:00)
Language:

OPAL - Orbit

View from above orbital plane
View from above orbital plane
View from above satellite
View from above satellite

Ground track
Ground track

The orbit data is extracted from the following two-line orbital elements,

1 26063U 00004C   15183.46740044  .00000012  00000-0  23947-4 0  9990
2 26063 100.2156 044.9596 0036668 165.6419 194.5812 14.36547765808624
Epoch (UTC): 02 July 2015 11:13:03
Eccentricity: 0.0036668
inclination: 100.2156°
perigee height: 744 km
apogee height: 796 km
right ascension of ascending node: 44.9596°
argument of perigee: 165.6419°
revolutions per day: 14.36547765
mean anomaly at epoch: 194.5812°
orbit number at epoch: 80862

The dashed part of the orbit path shows where the satellite is in the earth's shadow,  

DLR